Location: La Chapelle
(48.3135°N, 1.3085°W)
Time: 23:59:10
(UTC+00:00)

Meteor 1-11 Rocket - Pass Details

Date: 03 March 2021
Orbit: 831 x 916 km, 81.2° (Epoch: 20 April)

Event Time Altitude Azimuth Distance (km) Brightness Sun altitude
Rises 19:23:46 0° 168° (SSE) 3,464 6.7 -15.9°
Reaches altitude 10° 19:26:20 10° 161° (SSE) 2,517 5.9 -16.3°
Maximum altitude 19:31:39 42° 93° (E) 1,216 4.0 -17.2°
Drops below altitude 10° 19:36:54 10° 24° (NNE) 2,483 6.0 -18.1°
Sets 19:39:24 0° 18° (NNE) 3,412 6.8 -18.5°
